Location: Amarillo Post Office Jordan Station
(35.1907°N, 101.9342°W)
Time: 13:07:33
(UTC+00:00)

Cosmos 2058 Rocket - Pass Details

Date: 24 January 2021
Orbit: 611 x 639 km, 82.5° (Epoch: 03 March)

Event Time Altitude Azimuth Distance (km) Brightness Sun altitude
Rises 13:19:33 0° 182° (S) 2,866 6.7 -7.0°
Reaches altitude 10° 13:21:45 10° 181° (S) 1,969 5.9 -6.6°
Maximum altitude 13:26:06 77° 95° (E) 639 3.3 -5.7°
Drops below altitude 10° 13:30:32 10° 10° (N) 2,000 5.6 -4.9°
Sets 13:32:47 0° 9° (N) 2,915 6.4 -4.5°
